Location: El Bakhil
(32.7726°N, 5.5387°W)
Time: 10:22:19
(UTC+00:00)

NOSS 3-2 (A) - Pass Details

Date: 03 March 2021
Orbit: 780 x 1427 km, 63.4° (Epoch: 31 March)

Event Time Altitude Azimuth Distance (km) Brightness Sun altitude
Rises 20:05:36 0° 196° (SSW) 3,252 6.4 -22.7°
Reaches altitude 10° 20:07:58 10° 191° (S) 2,347 5.5 -23.2°
Enters shadow 20:12:16 49° 148° (SSE) 1,058 3.4 -24.1°
